Ulan Bator, Mongolia
Current Conditions -  °F | °C
As of 4:00 PM on Sunday 26 Oct 2014 (Local Time) from ZMUB Reporting Station
Clear Clear  
Wind Chill: 36°   Ceiling: Unl
Heat Index: 43°   Visibility: 6mi
Dew Point:   Wind: 13mph
Humidity: 16%   Direction: 150°SSE
Pressure: 30.3"   Gusts: NA
Location:  47.92°N, 106.91°E
Report Text: ZMUB 260800Z 15006MPS 130V190 CAVOK 06/M18 Q1026 NOSIG RMK QFE661.4 16
Loading
Personal Weather Stations






























Interactive Weather Map
Tropical Storm Tracking
New forecast layout! Learn more

10-Day Weather Forecast

Advertisements
Track Severe Weather on mobile